KQ4DLB-13 Weather Reports


Display with metric or nautical units.
time (UTC)temp
F
wind
direction
speed
MPH
gust
MPH
rain 1hr
in
rain 24hr
in
rain mn
in
humidity
%
barometer
mb
20260906122002 74 316 6.0 9.0 0.00 0.13 0.13 93 989.2
20260906121503 74 318 4.0 9.0 0.00 0.13 0.13 92 989.1
20260906121002 74 317 5.0 7.0 0.00 0.13 0.13 92 989.1
20260906120502 74 318 5.0 9.0 0.00 0.13 0.13 93 989.0
20260906120002 73 316 7.0 8.0 0.00 0.13 0.13 93 988.9
20260906115502 73 318 5.0 9.0 0.00 0.13 0.13 94 988.8
20260906115002 73 317 5.0 9.0 0.00 0.13 0.13 94 988.7
20260906114502 73 317 4.0 9.0 0.00 0.13 0.13 94 988.6
20260906114002 73 318 5.0 9.0 0.00 0.13 0.13 94 988.6
20260906113503 73 319 4.0 7.0 0.00 0.13 0.13 94 988.6
20260906113002 73 316 5.0 7.0 0.00 0.13 0.13 94 988.6
20260906112502 73 319 5.0 7.0 0.00 0.13 0.13 94 988.6
20260906112002 73 318 7.0 10.0 0.00 0.13 0.13 94 988.6
20260906111503 73 318 6.0 8.0 0.00 0.13 0.13 95 988.5
20260906111002 73 317 6.0 8.0 0.00 0.13 0.13 95 988.4
20260906110502 73 317 5.0 9.0 0.00 0.13 0.13 95 988.4
20260906110002 73 317 5.0 6.0 0.00 0.13 0.13 95 988.4
20260906105502 73 319 5.0 9.0 0.00 0.13 0.13 94 988.4
20260906105002 73 319 7.0 10.0 0.00 0.13 0.13 94 988.4
20260906104502 73 319 6.0 9.0 0.00 0.13 0.13 94 988.3
20260906104003 73 319 7.0 10.0 0.00 0.13 0.13 94 988.4
20260906103502 73 319 7.0 9.0 0.00 0.13 0.13 93 988.4
20260906103003 73 319 6.0 9.0 0.00 0.13 0.13 93 988.4
20260906102502 73 317 5.0 9.0 0.00 0.13 0.13 93 988.3
20260906102002 73 318 5.0 10.0 0.00 0.13 0.13 93 988.4
20260906101502 73 318 7.0 10.0 0.00 0.13 0.13 92 988.4
20260906101002 73 322 6.0 9.0 0.00 0.13 0.13 92 988.4
20260906100502 73 318 7.0 9.0 0.00 0.13 0.13 92 988.4
20260906100003 72 318 5.0 7.0 0.00 0.13 0.13 93 988.4
20260906095502 72 317 5.0 7.0 0.00 0.13 0.13 93 988.4
20260906095002 72 317 4.0 8.0 0.00 0.13 0.13 93 988.3
20260906094502 72 317 4.0 9.0 0.00 0.13 0.13 93 988.3
20260906094002 72 321 4.0 6.0 0.00 0.13 0.13 94 988.3
20260906093503 72 318 4.0 5.0 0.00 0.13 0.13 94 988.3
20260906093002 72 316 3.0 5.0 0.00 0.13 0.13 95 988.3
20260906092502 72 313 4.0 5.0 0.00 0.13 0.13 95 988.2
20260906092002 72 315 3.0 4.0 0.00 0.13 0.13 94 988.2
20260906091502 72 315 2.0 4.0 0.00 0.13 0.13 94 988.1
20260906091002 72 318 3.0 5.0 0.00 0.13 0.13 95 988.1
20260906090503 72 316 3.0 6.0 0.00 0.13 0.13 96 988.1
20260906090002 72 317 4.0 7.0 0.00 0.13 0.13 96 988.0
20260906085502 73 317 4.0 6.0 0.00 0.13 0.13 96 988.0
20260906085002 73 319 4.0 6.0 0.00 0.13 0.13 95 988.0
20260906084502 73 319 5.0 7.0 0.00 0.13 0.13 95 988.1
20260906084002 73 318 5.0 8.0 0.00 0.13 0.13 94 988.1
20260906083502 73 320 4.0 7.0 0.00 0.13 0.13 94 988.1
20260906083003 73 317 4.0 7.0 0.00 0.13 0.13 95 988.1
20260906082502 73 319 4.0 7.0 0.00 0.13 0.13 95 988.1
20260906082002 73 317 4.0 7.0 0.00 0.13 0.13 95 988.0
20260906081502 73 319 5.0 7.0 0.00 0.13 0.13 97 988.0
20260906081002 74 319 5.0 7.0 0.00 0.13 0.13 98 988.1
20260906080502 74 317 4.0 6.0 0.00 0.13 0.13 98 988.0
20260906080002 74 317 5.0 7.0 0.00 0.13 0.13 98 988.1
20260906075502 74 317 5.0 6.0 0.00 0.13 0.13 98 988.1
20260906075002 74 318 5.0 6.0 0.00 0.13 0.13 98 988.1
20260906074503 74 318 4.0 6.0 0.00 0.13 0.13 98 988.1
20260906074002 74 318 5.0 6.0 0.00 0.13 0.13 98 988.2
20260906073502 74 318 4.0 8.0 0.00 0.13 0.13 98 988.3
20260906073002 75 317 5.0 8.0 0.00 0.13 0.13 98 988.3
20260906072502 75 318 4.0 7.0 0.00 0.13 0.13 98 988.4
20260906072002 75 318 4.0 8.0 0.00 0.13 0.13 98 988.5
20260906071502 75 316 2.0 3.0 0.00 0.13 0.13 98 988.5
20260906071003 75 316 3.0 4.0 0.00 0.13 0.13 98 988.6
20260906070502 75 316 3.0 4.0 0.00 0.13 0.13 98 988.7
20260906070002 75 316 2.0 4.0 0.00 0.13 0.13 97 988.7
20260906065502 75 317 3.0 5.0 0.00 0.13 0.13 97 988.8
20260906065002 75 317 4.0 5.0 0.00 0.13 0.13 97 988.8
20260906064502 75 318 4.0 6.0 0.00 0.13 0.13 97 988.7
20260906064002 75 318 4.0 6.0 0.00 0.13 0.13 96 988.7
20260906063503 75 318 4.0 7.0 0.00 0.13 0.13 96 988.5
20260906063003 76 318 5.0 7.0 0.00 0.13 0.13 95 988.4
20260906062502 76 318 5.0 6.0 0.00 0.13 0.13 94 988.2
20260906062002 76 318 5.0 9.0 0.00 0.13 0.13 94 988.2
20260906061502 76 317 4.0 7.0 0.01 0.13 0.13 93 988.2
20260906061003 76 321 6.0 11.0 0.02 0.13 0.13 92 988.2
20260906060502 77 320 8.0 17.0 0.02 0.13 0.13 91 988.2
20260906060003 77 301 9.0 19.0 0.01 0.12 0.12 85 988.4
20260906055502 76 297 5.0 11.0 0.00 0.02 0.02 93 988.7
20260906055003 76 287 5.0 17.0 0.00 0.00 0.00 94 988.4
20260906054502 76 306 5.0 15.0 0.00 0.00 0.00 94 988.2
20260906054003 76 209 11.0 22.0 0.00 0.00 0.00 94 988.3
20260906053502 76 203 15.0 23.0 0.00 0.00 0.00 94 988.2
20260906053002 76 207 14.0 24.0 0.00 0.00 0.00 94 988.3
20260906052502 76 195 16.0 25.0 0.00 0.00 0.00 95 988.3
20260906052002 76 186 16.0 23.0 0.00 0.00 0.00 95 988.3
20260906051502 76 209 15.0 22.0 0.00 0.00 0.00 96 988.2
20260906051002 76 286 5.0 17.0 0.00 0.00 0.00 96 988.2
20260906050502 76 306 3.0 14.0 0.00 0.00 0.00 95 988.2
20260906050002 75 316 2.0 4.0 0.00 0.00 0.00 95 988.2
20260906045502 75 315 3.0 9.0 0.00 0.00 0.00 95 988.2
20260906045003 76 268 4.0 19.0 0.00 0.00 0.00 95 988.1
20260906044503 76 192 14.0 22.0 0.00 0.00 0.00 95 988.1
20260906044002 76 190 14.0 23.0 0.00 0.00 0.00 95 988.1
20260906043502 76 188 16.0 25.0 0.00 0.00 0.00 95 988.1
20260906043002 76 246 13.0 24.0 0.00 0.00 0.00 95 988.1
20260906042502 76 270 14.0 24.0 0.00 0.00 0.00 95 988.1
20260906042002 76 284 10.0 22.0 0.00 0.00 0.00 95 988.1
20260906041502 76 222 14.0 23.0 0.00 0.00 0.00 95 988.2
20260906041003 76 197 10.0 21.0 0.00 0.00 0.00 94 988.3
20260906040502 76 214 11.0 20.0 0.00 0.00 0.00 94 988.3
20260906040002 76 187 17.0 24.0 0.00 0.00 0.00 94 988.4
20260906035502 76 197 14.0 26.0 0.00 0.00 0.00 94 988.3
20260906035003 77 198 14.0 22.0 0.00 0.00 0.00 94 988.3
20260906034502 77 192 13.0 22.0 0.00 0.00 0.00 94 988.3
20260906034002 77 209 12.0 21.0 0.00 0.00 0.00 94 988.2
20260906033502 77 214 13.0 20.0 0.00 0.00 0.00 94 988.1
20260906033002 77 204 14.0 20.0 0.00 0.00 0.00 93 988.1
20260906032502 77 202 13.0 20.0 0.00 0.00 0.00 93 988.1
20260906032002 77 261 5.0 16.0 0.00 0.00 0.00 93 988.1
20260906031502 77 243 8.0 16.0 0.00 0.00 0.00 93 988.1
20260906031002 77 250 8.0 18.0 0.00 0.00 0.00 92 988.0
20260906030503 77 236 8.0 17.0 0.00 0.00 0.00 92 987.9
20260906030002 77 191 15.0 24.0 0.00 0.00 0.00 92 987.8
20260906025502 77 189 14.0 21.0 0.00 0.00 0.00 92 987.7
20260906025002 77 198 13.0 19.0 0.00 0.00 0.00 92 987.6
20260906024502 78 182 15.0 21.0 0.00 0.00 0.00 92 987.6
20260906024003 78 183 16.0 22.0 0.00 0.00 0.00 92 987.5
20260906023503 78 178 16.0 23.0 0.00 0.00 0.00 92 987.5
20260906023002 78 187 14.0 23.0 0.00 0.00 0.00 91 987.3
20260906022503 78 189 14.0 20.0 0.00 0.00 0.00 91 987.2
20260906022002 78 196 14.0 19.0 0.00 0.00 0.00 91 987.2
20260906021502 78 195 13.0 20.0 0.00 0.00 0.00 91 987.2
20260906021002 78 193 14.0 20.0 0.00 0.00 0.00 91 987.3
20260906020502 79 192 14.0 20.0 0.00 0.00 0.00 90 987.4
20260906020002 79 191 14.0 20.0 0.00 0.00 0.00 90 987.4
20260906015503 79 197 13.0 21.0 0.00 0.00 0.00 90 987.4
20260906015002 79 210 12.0 21.0 0.00 0.00 0.00 90 987.4
20260906014502 79 218 11.0 19.0 0.00 0.00 0.00 90 987.3
20260906014002 79 210 11.0 18.0 0.00 0.00 0.00 89 987.3
20260906013502 80 204 10.0 19.0 0.00 0.00 0.00 88 987.3
20260906013003 80 201 11.0 20.0 0.00 0.00 0.00 89 987.3
20260906012502 80 203 12.0 20.0 0.00 0.00 0.00 88 987.2
20260906012002 80 201 13.0 21.0 0.00 0.00 0.00 88 987.2
20260906011502 80 199 14.0 22.0 0.00 0.00 0.00 88 987.2
20260906011002 80 186 15.0 22.0 0.00 0.00 0.00 88 987.2
20260906010502 81 192 15.0 22.0 0.00 0.00 0.00 88 987.2
20260906010002 81 285 4.0 17.0 0.00 0.00 0.00 87 987.1
20260906005502 81 301 3.0 7.0 0.00 0.00 0.00 87 987.0
20260906005002 81 269 5.0 19.0 0.00 0.00 0.00 86 986.9
20260906004502 82 266 4.0 21.0 0.00 0.00 0.00 85 986.9
20260906004002 82 285 5.0 15.0 0.00 0.00 0.00 85 986.9
20260906003502 82 272 11.0 16.0 0.00 0.00 0.00 84 986.8
20260906003002 83 271 12.0 16.0 0.00 0.00 0.00 82 986.6
20260906002503 83 259 10.0 17.0 0.00 0.00 0.00 82 986.4
20260906002002 84 209 11.0 19.0 0.00 0.00 0.00 81 986.5
20260906001502 84 202 12.0 18.0 0.00 0.00 0.00 80 986.6
20260906001003 84 205 12.0 17.0 0.00 0.00 0.00 79 986.6
20260906000502 85 207 12.0 18.0 0.00 0.00 0.00 78 986.6
20260906000002 85 206 11.0 17.0 0.00 0.00 0.00 77 986.7
20260905235503 86 201 12.0 18.0 0.00 0.00 0.00 76 986.8
20260905235003 86 203 12.0 18.0 0.00 0.00 0.00 75 986.9
20260905234503 87 204 11.0 18.0 0.00 0.00 0.00 74 987.0
20260905234002 87 204 13.0 17.0 0.00 0.00 0.00 73 987.0
20260905233502 88 199 12.0 18.0 0.00 0.00 0.00 71 987.0
20260905233003 88 179 14.0 22.0 0.00 0.00 0.00 70 986.9
20260905232502 89 177 14.0 20.0 0.00 0.00 0.00 69 986.8
20260905232002 90 176 12.0 19.0 0.00 0.00 0.00 67 986.8
20260905231502 91 181 12.0 18.0 0.00 0.00 0.00 65 986.8
20260905231002 92 170 12.0 17.0 0.00 0.00 0.00 61 986.8
20260905230502 92 176 11.0 17.0 0.00 0.00 0.00 59 986.9
20260905230003 93 169 11.0 17.0 0.00 0.00 0.00 57 986.9
20260905225502 93 176 10.0 17.0 0.00 0.00 0.00 58 986.9
20260905225002 94 184 12.0 17.0 0.00 0.00 0.00 58 986.9
20260905224502 95 171 12.0 18.0 0.00 0.00 0.00 54 986.9
20260905224002 95 168 10.0 15.0 0.00 0.00 0.00 53 986.9
20260905223502 95 167 8.0 14.0 0.00 0.00 0.00 55 986.8
20260905223002 96 170 10.0 16.0 0.00 0.00 0.00 55 986.8
20260905222502 96 169 9.0 16.0 0.00 0.00 0.00 53 986.9
20260905222002 96 171 7.0 12.0 0.00 0.00 0.00 51 986.9
20260905221502 96 176 8.0 16.0 0.00 0.00 0.00 51 986.9
20260905221003 96 174 7.0 13.0 0.00 0.00 0.00 50 987.0
20260905220502 96 172 8.0 14.0 0.00 0.00 0.00 50 987.0
20260905220002 95 172 7.0 10.0 0.00 0.00 0.00 51 987.0
20260905215503 95 169 9.0 14.0 0.00 0.00 0.00 51 987.0
20260905215002 95 170 8.0 14.0 0.00 0.00 0.00 52 987.0
20260905214502 95 163 11.0 17.0 0.00 0.00 0.00 54 987.1
20260905214002 96 167 9.0 14.0 0.00 0.00 0.00 52 987.1
20260905213502 96 164 9.0 15.0 0.00 0.00 0.00 52 987.1
20260905213002 97 172 8.0 13.0 0.00 0.00 0.00 52 987.1
20260905212503 97 159 7.0 10.0 0.00 0.00 0.00 50 987.1
20260905212002 98 175 9.0 14.0 0.00 0.00 0.00 50 987.1
20260905211502 97 169 7.0 12.0 0.00 0.00 0.00 51 987.1
20260905211002 96 164 7.0 13.0 0.00 0.00 0.00 51 987.2
20260905210502 96 172 8.0 12.0 0.00 0.00 0.00 50 987.2
20260905210003 96 172 8.0 11.0 0.00 0.00 0.00 51 987.3
20260905205503 97 164 7.0 11.0 0.00 0.00 0.00 49 987.3
20260905205002 97 181 11.0 19.0 0.00 0.00 0.00 50 987.4
20260905204502 96 162 6.0 11.0 0.00 0.00 0.00 50 987.5
20260905204002 96 171 8.0 12.0 0.00 0.00 0.00 52 987.6
20260905203503 96 168 11.0 15.0 0.00 0.00 0.00 51 987.6
20260905203002 96 170 10.0 16.0 0.00 0.00 0.00 51 987.6
20260905202502 96 162 11.0 17.0 0.00 0.00 0.00 52 987.7
20260905202002 95 180 9.0 15.0 0.00 0.00 0.00 53 987.8
20260905201502 95 172 9.0 15.0 0.00 0.00 0.00 55 987.9
20260905201002 95 167 9.0 15.0 0.00 0.00 0.00 51 987.9
20260905200502 95 264 6.0 10.0 0.00 0.00 0.00 50 988.0
20260905200003 95 174 11.0 17.0 0.00 0.00 0.00 52 988.1
20260905195501 95 177 9.0 16.0 0.00 0.00 0.00 53 988.2
20260905195003 95 178 11.0 15.0 0.00 0.00 0.00 54 988.2
20260905194503 95 169 9.0 12.0 0.00 0.00 0.00 54 988.3
20260905194002 95 179 10.0 14.0 0.00 0.00 0.00 54 988.3
20260905193502 95 184 9.0 15.0 0.00 0.00 0.00 51 988.3
20260905193003 95 185 9.0 14.0 0.00 0.00 0.00 52 988.3
20260905192502 96 175 9.0 13.0 0.00 0.00 0.00 53 988.4
20260905192002 96 168 9.0 13.0 0.00 0.00 0.00 49 988.4
20260905191502 97 176 11.0 16.0 0.00 0.00 0.00 50 988.5
20260905191002 96 180 7.0 13.0 0.00 0.00 0.00 50 988.6
20260905190503 96 159 8.0 16.0 0.00 0.00 0.00 50 988.8
20260905190002 96 153 6.0 10.0 0.00 0.00 0.00 51 988.9
20260905185502 96 161 6.0 9.0 0.00 0.00 0.00 52 989.0
20260905185002 95 162 8.0 17.0 0.00 0.00 0.00 52 989.1
20260905184502 95 165 10.0 18.0 0.00 0.00 0.00 51 989.1
20260905184002 95 176 8.0 14.0 0.00 0.00 0.00 52 989.2
20260905183502 94 178 7.0 12.0 0.00 0.00 0.00 52 989.2
20260905183002 94 164 10.0 14.0 0.00 0.00 0.00 55 989.3
20260905182502 93 182 7.0 12.0 0.00 0.00 0.00 57 989.3
20260905182002 92 177 11.0 18.0 0.00 0.00 0.00 60 989.3
20260905181503 93 159 13.0 17.0 0.00 0.00 0.00 61 989.4
20260905181002 94 157 14.0 19.0 0.00 0.00 0.00 59 989.5
20260905180502 95 175 12.0 20.0 0.00 0.00 0.00 56 989.5
20260905180002 95 179 13.0 22.0 0.00 0.00 0.00 53 989.5
20260905175502 95 181 8.0 16.0 0.00 0.00 0.00 53 989.5
20260905175002 95 179 8.0 14.0 0.00 0.00 0.00 54 989.5
20260905174502 94 292 6.0 10.0 0.00 0.00 0.00 54 989.5
20260905174003 94 176 12.0 18.0 0.00 0.00 0.00 56 989.6
20260905173502 94 185 10.0 20.0 0.00 0.00 0.00 56 989.6
20260905173002 94 178 7.0 13.0 0.00 0.00 0.00 56 989.7
20260905172502 94 170 8.0 12.0 0.00 0.00 0.00 57 989.7
20260905172002 94 142 6.0 11.0 0.00 0.00 0.00 55 989.7
20260905171502 94 201 7.0 11.0 0.00 0.00 0.00 56 989.8
20260905171002 93 179 10.0 18.0 0.00 0.00 0.00 56 989.8
20260905170502 93 347 10.0 17.0 0.00 0.00 0.00 55 989.8
20260905170003 93 185 8.0 16.0 0.00 0.00 0.00 57 989.9
20260905165502 93 347 7.0 15.0 0.00 0.00 0.00 58 990.0
20260905165002 93 127 6.0 12.0 0.00 0.00 0.00 56 990.1
20260905164502 93 236 7.0 14.0 0.00 0.00 0.00 57 990.2
20260905164002 93 327 7.0 16.0 0.00 0.00 0.00 57 990.2
20260905163502 93 300 6.0 12.0 0.00 0.00 0.00 58 990.2
20260905163002 93 232 6.0 13.0 0.00 0.00 0.00 58 990.2
20260905162502 92 321 7.0 13.0 0.00 0.00 0.00 58 990.2
20260905162003 91 317 5.0 10.0 0.00 0.00 0.00 62 990.2
20260905161502 91 319 5.0 7.0 0.00 0.00 0.00 61 990.3
20260905161002 90 318 5.0 8.0 0.00 0.00 0.00 62 990.3
20260905160502 90 319 5.0 7.0 0.00 0.00 0.00 64 990.3
20260905160003 89 319 5.0 7.0 0.00 0.00 0.00 65 990.4
20260905155502 89 286 9.0 22.0 0.00 0.00 0.00 69 990.4
20260905155002 89 239 14.0 20.0 0.00 0.00 0.00 68 990.5
20260905154502 88 242 13.0 22.0 0.00 0.00 0.00 66 990.5
20260905154002 88 238 14.0 21.0 0.00 0.00 0.00 70 990.6
20260905153502 87 224 14.0 23.0 0.00 0.00 0.00 71 990.6
20260905153002 87 213 15.0 24.0 0.00 0.00 0.00 71 990.6
20260905152502 86 215 12.0 21.0 0.00 0.00 0.00 72 990.6
20260905152003 85 213 11.0 16.0 0.00 0.00 0.00 74 990.6
20260905151502 85 267 9.0 17.0 0.00 0.00 0.00 77 990.4
20260905151002 85 275 5.0 13.0 0.00 0.00 0.00 79 990.3
20260905150502 84 312 3.0 6.0 0.00 0.00 0.00 81 990.4
20260905150002 84 291 4.0 10.0 0.00 0.00 0.00 81 990.4
20260905145503 83 316 2.0 4.0 0.00 0.00 0.00 80 990.4
20260905145003 82 310 4.0 7.0 0.00 0.00 0.00 81 990.4
20260905144502 82 293 3.0 8.0 0.00 0.00 0.00 84 990.7
20260905144002 82 278 5.0 12.0 0.00 0.00 0.00 85 990.9
20260905143502 82 286 5.0 7.0 0.00 0.00 0.00 84 991.0
20260905143003 82 295 3.0 9.0 0.00 0.00 0.00 83 991.0
20260905142502 81 304 4.0 12.0 0.00 0.00 0.00 86 990.9
20260905142002 81 290 6.0 14.0 0.00 0.00 0.00 87 991.0
20260905141502 80 317 3.0 7.0 0.00 0.00 0.00 89 991.0
20260905141002 79 299 5.0 24.0 0.00 0.00 0.00 90 990.9
20260905140502 79 254 7.0 16.0 0.00 0.00 0.00 90 990.9
20260905140003 78 311 4.0 8.0 0.00 0.00 0.00 90 990.9
20260905135502 78 311 4.0 7.0 0.00 0.00 0.00 91 990.9
20260905135002 77 307 4.0 7.0 0.00 0.00 0.00 93 990.9
20260905134502 77 280 5.0 11.0 0.00 0.00 0.00 94 991.0
20260905134002 76 246 5.0 14.0 0.00 0.00 0.00 95 991.0
20260905133502 76 252 6.0 15.0 0.00 0.00 0.00 95 991.0
20260905133003 76 208 9.0 18.0 0.00 0.00 0.00 96 991.0
20260905132502 76 195 9.0 18.0 0.00 0.00 0.00 97 991.0
20260905132002 75 198 11.0 17.0 0.00 0.00 0.00 98 991.0
20260905131502 75 194 11.0 18.0 0.00 0.00 0.00 98 991.0
20260905131002 75 202 10.0 17.0 0.00 0.00 0.00 98 990.9
20260905130502 75 196 10.0 17.0 0.00 0.00 0.00 99 990.9
20260905130002 74 194 11.0 17.0 0.00 0.00 0.00 99 990.9
20260905125502 74 197 11.0 17.0 0.00 0.00 0.00 99 991.0
20260905125003 74 203 12.0 16.0 0.00 0.00 0.00 99 991.0
20260905124503 73 218 10.0 16.0 0.00 0.00 0.00 99 991.0
20260905124002 73 221 10.0 17.0 0.00 0.00 0.00 99 991.0
20260905123502 73 214 8.0 17.0 0.00 0.00 0.00 99 990.9
20260905123003 73 248 5.0 14.0 0.00 0.00 0.00 99 990.9
20260905122502 73 250 5.0 13.0 0.00 0.00 0.00 99 990.9